AAL8126 KORD-OTHH

Flight info

Callsign AAL8126
Flight time N/A
Altitude 33000
Route RAYNR DCT BRTMN DCT TAAYZ DCT SQUIB DCT HAUCK DCT HRRSH DCT HOCKE DCT ROSVO DCT IGSAS DCT 5230N06000W/N0479F350 DCT LOMSI/M084F360 DCT 55N050W 56N040W 57N030W 57N020W DCT PIKIL DCT SOVED/N0477F370 DCT KUGUR DCT BELZU DCT MASOP DCT BELOX L603 DOLAS DCT NAVPI DCT OTMEC DCT TIVUN DCT ESAMA DCT OSBIT DCT BARSU DCT MOOCE DCT RUDNO DCT DEXIT DCT ARSIN/N0471F390 DCT BABIT DCT OKLOP DCT NISVA DCT RODIP DCT BELGI UT38 VESAR L620 BALMA UR655 CAK UN310 LATEB N310 BASEM R785 RASLI P559 TRF R23 NEVOL N318 VELAL/N0485F410 N318 TAMRO T503 LABIS L604 KFA M691 LADNA N318 HAYYA
Aircraft B772/H-SDE2E3FGHIJ5LORVWXY/LB1D1

Departure

Time 2026-05-06 16:49
Airport Chicago O'Hare International Airport (KORD)

Arrival

Time N/A
Airport Hamad International Airport (OTHH)
Time Latitude Longitude Altitude Speed Heading
2026-05-06 16:09 41.97348 -87.88637 674 ft 0 kts
2026-05-06 16:38 41.97341 -87.88637 672 ft 4 kts 357°
2026-05-06 16:39 41.97315 -87.88632 672 ft 4 kts 341°
2026-05-06 16:39 41.97291 -87.88616 672 ft 4 kts 320°
2026-05-06 16:39 41.97274 -87.88591 672 ft 4 kts 291°
2026-05-06 16:39 41.97270 -87.88569 670 ft 0 kts 270°
2026-05-06 16:41 41.97270 -87.88635 673 ft 17 kts 270°
2026-05-06 16:42 41.97269 -87.88808 673 ft 18 kts 269°
2026-05-06 16:42 41.97268 -87.88978 673 ft 18 kts 269°
2026-05-06 16:42 41.97267 -87.89148 673 ft 17 kts 270°
2026-05-06 16:42 41.97268 -87.89282 673 ft 8 kts 270°
2026-05-06 16:43 41.97300 -87.89341 673 ft 11 kts 324°
2026-05-06 16:43 41.97347 -87.89411 673 ft 9 kts 319°
2026-05-06 16:43 41.97416 -87.89431 673 ft 12 kts 358°
2026-05-06 16:43 41.97513 -87.89431 673 ft 14 kts
2026-05-06 16:44 41.97610 -87.89432 673 ft 14 kts 359°
2026-05-06 16:44 41.97710 -87.89433 673 ft 14 kts 360°
2026-05-06 16:44 41.97808 -87.89434 673 ft 14 kts 359°
2026-05-06 16:44 41.97905 -87.89416 673 ft 14 kts 29°
2026-05-06 16:45 41.97970 -87.89317 673 ft 14 kts 50°
2026-05-06 16:45 41.98033 -87.89218 673 ft 14 kts 50°
2026-05-06 16:45 41.98096 -87.89114 673 ft 14 kts 50°
2026-05-06 16:45 41.98155 -87.89019 673 ft 13 kts 50°
2026-05-06 16:46 41.98216 -87.88939 673 ft 11 kts 33°
2026-05-06 16:46 41.98270 -87.88919 673 ft 4 kts
2026-05-06 16:46 41.98273 -87.88919 673 ft 0 kts
2026-05-06 16:46 41.98277 -87.88918 673 ft 2 kts
2026-05-06 16:47 41.98315 -87.88918 672 ft 7 kts 360°
2026-05-06 16:47 41.98378 -87.88933 671 ft 9 kts 321°
2026-05-06 16:47 41.98389 -87.88990 672 ft 0 kts 269°
2026-05-06 16:48 41.98389 -87.89038 672 ft 20 kts 270°
2026-05-06 16:48 41.98388 -87.89500 675 ft 80 kts 270°
2026-05-06 16:48 41.98389 -87.90504 671 ft 134 kts 270°
2026-05-06 16:48 41.98390 -87.91981 699 ft 178 kts 270°
2026-05-06 16:49 41.98428 -87.93677 1215 ft 183 kts 270°
2026-05-06 16:49 41.98438 -87.95368 1990 ft 180 kts 271°
2026-05-06 16:49 41.98381 -87.97077 2522 ft 191 kts 266°
2026-05-06 16:49 41.98265 -87.98931 2680 ft 206 kts 266°
2026-05-06 16:50 41.98135 -88.00925 2833 ft 221 kts 266°
2026-05-06 16:50 41.98069 -88.03005 3108 ft 223 kts 279°
2026-05-06 16:50 41.98697 -88.04906 3473 ft 228 kts 311°
2026-05-06 16:50 41.99956 -88.06053 3733 ft 238 kts 340°
2026-05-06 16:51 42.01650 -88.06210 3948 ft 254 kts 11°
2026-05-06 16:51 42.03286 -88.05235 4294 ft 261 kts 30°
2026-05-06 16:51 42.04837 -88.03911 4677 ft 267 kts 29°
2026-05-06 16:51 42.06373 -88.02520 5120 ft 267 kts 37°
2026-05-06 16:52 42.07877 -88.01025 5426 ft 271 kts 29°
2026-05-06 16:52 42.09504 -87.99735 5883 ft 272 kts 26°
2026-05-06 16:52 42.11157 -87.98473 6375 ft 274 kts 26°
2026-05-06 16:52 42.12820 -87.97193 6808 ft 276 kts 26°
2026-05-06 16:53 42.14493 -87.95886 7217 ft 279 kts 26°
2026-05-06 16:53 42.16174 -87.94562 7654 ft 281 kts 26°
2026-05-06 16:53 42.17867 -87.93216 8092 ft 283 kts 26°
2026-05-06 16:53 42.19575 -87.91853 8481 ft 287 kts 26°
2026-05-06 16:54 42.21296 -87.90477 8901 ft 289 kts 26°
2026-05-06 16:54 42.23029 -87.89088 9336 ft 291 kts 26°
2026-05-06 16:54 42.24772 -87.87689 9769 ft 292 kts 26°
2026-05-06 16:54 42.26528 -87.86280 10123 ft 296 kts 26°
2026-05-06 16:55 42.28341 -87.84828 10222 ft 310 kts 26°
2026-05-06 16:55 42.30236 -87.83425 10313 ft 320 kts 18°
2026-05-06 16:55 42.32375 -87.82445 10449 ft 329 kts
2026-05-06 16:55 42.34668 -87.81915 10554 ft 341 kts
2026-05-06 16:56 42.37088 -87.81677 10695 ft 356 kts 359°
2026-05-06 16:56 42.39597 -87.81459 11044 ft 367 kts 359°
2026-05-06 16:56 42.42178 -87.81175 11524 ft 376 kts
2026-05-06 16:56 42.44800 -87.80847 12115 ft 381 kts
2026-05-06 16:57 42.47452 -87.80536 12825 ft 384 kts 357°
2026-05-06 16:57 42.50119 -87.80554 13491 ft 384 kts 350°
2026-05-06 16:57 42.52803 -87.80774 14101 ft 390 kts 350°
2026-05-06 16:57 42.55527 -87.80990 14712 ft 394 kts 350°
2026-05-06 16:58 42.58280 -87.81188 15359 ft 398 kts 350°
2026-05-06 16:58 42.61059 -87.81371 16012 ft 403 kts 349°
2026-05-06 16:58 42.63877 -87.81552 16596 ft 408 kts 349°
2026-05-06 16:58 42.66728 -87.81715 17160 ft 411 kts 352°
2026-05-06 16:59 42.69630 -87.81131 17484 ft 439 kts 13°
2026-05-06 16:59 42.72337 -87.79016 18008 ft 463 kts 36°
2026-05-06 16:59 42.74427 -87.75610 18562 ft 478 kts 59°
2026-05-06 16:59 42.75710 -87.71427 18996 ft 481 kts 71°
2026-05-06 17:00 42.76762 -87.67056 19396 ft 489 kts 72°
2026-05-06 17:00 42.77807 -87.62620 19895 ft 494 kts 72°
2026-05-06 17:00 42.78880 -87.58154 20456 ft 499 kts 71°
2026-05-06 17:00 42.79990 -87.53662 20987 ft 503 kts 71°
2026-05-06 17:01 42.81137 -87.49135 21487 ft 508 kts 70°
2026-05-06 17:01 42.82308 -87.44571 21956 ft 513 kts 70°
2026-05-06 17:01 42.83479 -87.40027 22410 ft 518 kts 70°
2026-05-06 17:01 42.84677 -87.35375 22866 ft 522 kts 70°
2026-05-06 17:02 42.85880 -87.30685 23295 ft 527 kts 71°
2026-05-06 17:02 42.87091 -87.25944 23700 ft 532 kts 71°